Time,TemperatureF,DewpointF,PressureIn,WindDirection,WindDirectionDegrees,WindSpeedMPH,WindSpeedGustMPH,Humidity,HourlyPrecipIn,Conditions,Clouds,dailyrainin,SoftwareType,DateUTC
2013-03-17 00:11:00,39.8,37.0,28.10,ESE,120,0.0,1.0,89,0.00,,,0.00,weatherlink.com 1.10,2013-03-17 04:11:00,
2013-03-17 00:41:00,38.1,36.0,28.10,SE,133,0.0,1.0,90,0.00,,,0.00,weatherlink.com 1.10,2013-03-17 04:41:00,
2013-03-17 00:56:00,37.6,36.0,28.10,SE,132,0.0,0.0,92,0.00,,,0.00,weatherlink.com 1.10,2013-03-17 04:56:00,
2013-03-17 01:11:00,36.2,34.0,28.10,SE,133,0.0,0.0,91,0.00,,,0.00,weatherlink.com 1.10,2013-03-17 05:11:00,
2013-03-17 01:26:00,35.9,34.0,28.11,SE,132,0.0,0.0,93,0.00,,,0.00,weatherlink.com 1.10,2013-03-17 05:26:00,
2013-03-17 01:41:00,35.4,34.0,28.11,SE,133,0.0,0.0,94,0.00,,,0.00,weatherlink.com 1.10,2013-03-17 05:41:00,
2013-03-17 01:56:00,35.4,34.0,28.12,SE,132,0.0,0.0,95,0.00,,,0.00,weatherlink.com 1.10,2013-03-17 05:56:00,
2013-03-17 02:12:00,34.8,33.0,28.13,ESE,120,0.0,1.0,94,0.00,,,0.00,weatherlink.com 1.10,2013-03-17 06:12:00,
2013-03-17 02:26:00,34.5,33.0,28.13,ESE,120,0.0,1.0,95,0.00,,,0.00,weatherlink.com 1.10,2013-03-17 06:26:00,
2013-03-17 02:41:00,35.3,34.0,28.13,ESE,120,0.0,1.0,96,0.00,,,0.00,weatherlink.com 1.10,2013-03-17 06:41:00,
2013-03-17 02:56:00,34.9,34.0,28.14,ESE,120,0.0,1.0,96,0.00,,,0.00,weatherlink.com 1.10,2013-03-17 06:56:00,
2013-03-17 03:11:00,34.7,34.0,28.13,ESE,120,0.0,0.0,96,0.00,,,0.00,weatherlink.com 1.10,2013-03-17 07:11:00,
2013-03-17 03:26:00,34.3,33.0,28.13,ESE,120,0.0,0.0,96,0.00,,,0.00,weatherlink.com 1.10,2013-03-17 07:26:00,
2013-03-17 03:42:00,34.1,33.0,28.13,ESE,120,0.0,0.0,96,0.00,,,0.00,weatherlink.com 1.10,2013-03-17 07:42:00,
2013-03-17 03:57:00,33.7,33.0,28.13,ESE,120,0.0,1.0,96,0.00,,,0.00,weatherlink.com 1.10,2013-03-17 07:57:00,
2013-03-17 04:12:00,33.3,32.0,28.13,ESE,120,0.0,0.0,96,0.00,,,0.00,weatherlink.com 1.10,2013-03-17 08:12:00,
2013-03-17 04:27:00,33.0,32.0,28.13,ESE,120,0.0,0.0,96,0.00,,,0.00,weatherlink.com 1.10,2013-03-17 08:27:00,
2013-03-17 04:42:00,32.0,31.0,28.14,ESE,120,0.0,1.0,96,0.00,,,0.00,weatherlink.com 1.10,2013-03-17 08:42:00,
2013-03-17 04:57:00,32.5,32.0,28.13,ESE,120,0.0,0.0,96,0.00,,,0.00,weatherlink.com 1.10,2013-03-17 08:57:00,
2013-03-17 05:12:00,31.7,31.0,28.14,ESE,120,0.0,0.0,96,0.00,,,0.00,weatherlink.com 1.10,2013-03-17 09:12:00,
2013-03-17 05:27:00,32.1,31.0,28.15,ESE,120,0.0,0.0,96,0.00,,,0.00,weatherlink.com 1.10,2013-03-17 09:27:00,
2013-03-17 05:42:00,32.8,32.0,28.15,ESE,120,0.0,0.0,97,0.00,,,0.00,weatherlink.com 1.10,2013-03-17 09:42:00,
2013-03-17 05:57:00,33.4,33.0,28.17,ESE,120,0.0,0.0,97,0.00,,,0.00,weatherlink.com 1.10,2013-03-17 09:57:00,
2013-03-17 06:12:00,33.7,33.0,28.17,ESE,120,0.0,0.0,97,0.00,,,0.00,weatherlink.com 1.10,2013-03-17 10:12:00,
2013-03-17 06:27:00,35.0,34.0,28.18,ESE,123,0.0,1.0,97,0.00,,,0.00,weatherlink.com 1.10,2013-03-17 10:27:00,
2013-03-17 06:42:00,35.0,34.0,28.19,East,98,0.0,0.0,97,0.00,,,0.00,weatherlink.com 1.10,2013-03-17 10:42:00,
2013-03-17 06:57:00,34.4,33.0,28.20,East,98,0.0,0.0,96,0.00,,,0.00,weatherlink.com 1.10,2013-03-17 10:57:00,
2013-03-17 07:12:00,34.5,34.0,28.21,ESE,106,0.0,1.0,97,0.00,,,0.00,weatherlink.com 1.10,2013-03-17 11:12:00,
2013-03-17 07:27:00,35.2,35.0,28.22,ESE,106,0.0,0.0,97,0.00,,,0.00,weatherlink.com 1.10,2013-03-17 11:27:00,
2013-03-17 07:42:00,35.4,35.0,28.21,ESE,106,0.0,0.0,97,0.00,,,0.00,weatherlink.com 1.10,2013-03-17 11:42:00,
2013-03-17 07:57:00,35.8,35.0,28.22,ESE,105,0.0,0.0,97,0.00,,,0.00,weatherlink.com 1.10,2013-03-17 11:57:00,
2013-03-17 08:12:00,36.2,36.0,28.22,ESE,105,0.0,1.0,97,0.00,,,0.00,weatherlink.com 1.10,2013-03-17 12:12:00,
2013-03-17 08:27:00,36.8,36.0,28.24,ESE,105,0.0,0.0,97,0.00,,,0.00,weatherlink.com 1.10,2013-03-17 12:27:00,
2013-03-17 08:42:00,37.6,36.0,28.27,ESE,122,1.0,4.0,95,0.00,,,0.00,weatherlink.com 1.10,2013-03-17 12:42:00,
2013-03-17 08:57:00,37.9,36.0,28.27,SE,143,5.0,5.0,92,0.00,,,0.00,weatherlink.com 1.10,2013-03-17 12:57:00,
2013-03-17 09:12:00,38.0,36.0,28.29,ESE,123,0.0,2.0,91,0.00,,,0.00,weatherlink.com 1.10,2013-03-17 13:12:00,
2013-03-17 09:27:00,38.3,36.0,28.29,SE,127,0.0,3.0,91,0.00,,,0.00,weatherlink.com 1.10,2013-03-17 13:27:00,
2013-03-17 09:42:00,38.3,35.0,28.30,ESE,120,1.0,2.0,89,0.00,,,0.00,weatherlink.com 1.10,2013-03-17 13:42:00,
2013-03-17 09:57:00,38.1,35.0,28.30,ESE,110,1.0,5.0,89,0.00,,,0.00,weatherlink.com 1.10,2013-03-17 13:57:00,
2013-03-17 10:12:00,38.2,35.0,28.29,ESE,122,0.0,5.0,89,0.00,,,0.00,weatherlink.com 1.10,2013-03-17 14:12:00,
2013-03-17 10:27:00,38.0,35.0,28.29,ESE,122,2.0,5.0,89,0.00,,,0.00,weatherlink.com 1.10,2013-03-17 14:27:00,
2013-03-17 10:42:00,37.2,35.0,28.29,ESE,103,2.0,5.0,90,0.00,,,0.00,weatherlink.com 1.10,2013-03-17 14:42:00,
2013-03-17 10:57:00,36.5,34.0,28.30,East,101,2.0,3.0,92,0.01,,,0.01,weatherlink.com 1.10,2013-03-17 14:57:00,
2013-03-17 11:12:00,35.5,33.0,28.32,South,186,2.0,2.0,92,0.03,,,0.03,weatherlink.com 1.10,2013-03-17 15:12:00,
2013-03-17 11:27:00,34.5,33.0,28.32,SSW,198,1.0,2.0,93,0.04,,,0.04,weatherlink.com 1.10,2013-03-17 15:27:00,
2013-03-17 11:42:00,34.0,33.0,28.32,SSW,197,0.0,1.0,94,0.04,,,0.04,weatherlink.com 1.10,2013-03-17 15:42:00,
2013-03-17 11:57:00,33.7,32.0,28.32,South,191,0.0,1.0,94,0.04,,,0.05,weatherlink.com 1.10,2013-03-17 15:57:00,
2013-03-17 12:12:00,34.0,33.0,28.32,SSW,197,2.0,3.0,95,0.03,,,0.06,weatherlink.com 1.10,2013-03-17 16:12:00,
2013-03-17 12:27:00,34.3,33.0,28.32,South,190,2.0,5.0,94,0.04,,,0.08,weatherlink.com 1.10,2013-03-17 16:27:00,
2013-03-17 12:42:00,34.4,33.0,28.32,SSW,198,2.0,3.0,94,0.05,,,0.09,weatherlink.com 1.10,2013-03-17 16:42:00,
2013-03-17 12:57:00,34.3,33.0,28.32,SSW,197,1.0,3.0,94,0.04,,,0.00,weatherlink.com 1.10,2013-03-17 16:57:00,
2013-03-17 13:12:00,34.4,33.0,28.32,SSW,192,0.0,1.0,94,0.04,,,0.01,weatherlink.com 1.10,2013-03-17 17:12:00,
2013-03-17 13:28:00,34.4,33.0,28.32,South,188,0.0,2.0,93,0.02,,,0.01,weatherlink.com 1.10,2013-03-17 17:28:00,
2013-03-17 13:43:00,34.3,33.0,28.32,SSW,194,0.0,1.0,94,0.01,,,0.01,weatherlink.com 1.10,2013-03-17 17:43:00,
2013-03-17 13:58:00,34.4,33.0,28.32,SSW,193,0.0,0.0,93,0.02,,,0.02,weatherlink.com 1.10,2013-03-17 17:58:00,
2013-03-17 14:13:00,33.9,32.0,28.32,South,181,1.0,3.0,93,0.01,,,0.02,weatherlink.com 1.10,2013-03-17 18:13:00,
2013-03-17 14:28:00,33.1,32.0,28.32,SSW,194,0.0,3.0,94,0.01,,,0.02,weatherlink.com 1.10,2013-03-17 18:28:00,
2013-03-17 14:43:00,32.7,31.0,28.32,South,190,0.0,1.0,94,0.01,,,0.02,weatherlink.com 1.10,2013-03-17 18:43:00,
2013-03-17 14:58:00,32.7,32.0,28.32,South,191,0.0,1.0,95,0.00,,,0.02,weatherlink.com 1.10,2013-03-17 18:58:00,
2013-03-17 15:13:00,32.8,32.0,28.31,SSW,193,0.0,1.0,95,0.00,,,0.02,weatherlink.com 1.10,2013-03-17 19:13:00,
2013-03-17 15:28:00,32.8,32.0,28.32,South,190,0.0,2.0,95,0.00,,,0.02,weatherlink.com 1.10,2013-03-17 19:28:00,
2013-03-17 15:43:00,32.8,32.0,28.31,SSW,198,0.0,2.0,95,0.00,,,0.02,weatherlink.com 1.10,2013-03-17 19:43:00,
2013-03-17 15:58:00,32.7,32.0,28.32,South,169,0.0,2.0,95,0.00,,,0.02,weatherlink.com 1.10,2013-03-17 19:58:00,
2013-03-17 16:13:00,32.7,32.0,28.32,SSW,193,0.0,2.0,95,0.00,,,0.02,weatherlink.com 1.10,2013-03-17 20:13:00,
2013-03-17 16:28:00,32.7,32.0,28.32,ESE,122,1.0,4.0,95,0.00,,,0.02,weatherlink.com 1.10,2013-03-17 20:28:00,
2013-03-17 16:43:00,32.7,32.0,28.32,SSW,204,0.0,1.0,95,0.00,,,0.02,weatherlink.com 1.10,2013-03-17 20:43:00,
2013-03-17 16:58:00,32.7,32.0,28.32,South,191,1.0,1.0,95,0.00,,,0.02,weatherlink.com 1.10,2013-03-17 20:58:00,
2013-03-17 17:13:00,32.8,32.0,28.33,SSW,193,0.0,0.0,95,0.00,,,0.02,weatherlink.com 1.10,2013-03-17 21:13:00,
2013-03-17 17:28:00,33.1,32.0,28.34,SSW,193,0.0,0.0,95,0.00,,,0.02,weatherlink.com 1.10,2013-03-17 21:28:00,
2013-03-17 17:43:00,33.1,32.0,28.34,SSW,193,0.0,0.0,95,0.00,,,0.02,weatherlink.com 1.10,2013-03-17 21:43:00,
2013-03-17 17:58:00,33.0,32.0,28.34,SSW,193,0.0,0.0,95,0.00,,,0.02,weatherlink.com 1.10,2013-03-17 21:58:00,
2013-03-17 18:13:00,33.1,32.0,28.34,SSW,193,0.0,0.0,95,0.00,,,0.02,weatherlink.com 1.10,2013-03-17 22:13:00,
2013-03-17 18:28:00,32.9,32.0,28.35,SSW,193,0.0,1.0,95,0.00,,,0.02,weatherlink.com 1.10,2013-03-17 22:28:00,
2013-03-17 18:43:00,32.8,32.0,28.35,SSW,193,0.0,0.0,95,0.00,,,0.02,weatherlink.com 1.10,2013-03-17 22:43:00,
2013-03-17 18:58:00,32.6,31.0,28.36,SSW,193,0.0,0.0,95,0.00,,,0.02,weatherlink.com 1.10,2013-03-17 22:58:00,
2013-03-17 19:28:00,32.2,31.0,28.37,SSW,193,0.0,0.0,95,0.00,,,0.02,weatherlink.com 1.10,2013-03-17 23:28:00,
2013-03-17 19:43:00,32.0,31.0,28.36,SSW,193,0.0,1.0,95,0.00,,,0.02,weatherlink.com 1.10,2013-03-17 23:43:00,
2013-03-17 19:58:00,31.9,31.0,28.36,SSW,193,0.0,0.0,96,0.00,,,0.02,weatherlink.com 1.10,2013-03-17 23:58:00,
2013-03-17 20:13:00,31.8,31.0,28.36,SSW,193,0.0,0.0,96,0.00,,,0.02,weatherlink.com 1.10,2013-03-18 00:13:00,
2013-03-17 20:28:00,31.7,31.0,28.38,SSW,193,0.0,0.0,96,0.00,,,0.02,weatherlink.com 1.10,2013-03-18 00:28:00,
2013-03-17 20:43:00,31.6,31.0,28.37,SSW,193,0.0,0.0,96,0.00,,,0.02,weatherlink.com 1.10,2013-03-18 00:43:00,
2013-03-17 20:58:00,31.6,31.0,28.37,SSW,193,0.0,0.0,96,0.00,,,0.02,weatherlink.com 1.10,2013-03-18 00:58:00,
2013-03-17 21:13:00,31.6,31.0,28.38,SSW,193,0.0,0.0,96,0.00,,,0.02,weatherlink.com 1.10,2013-03-18 01:13:00,
2013-03-17 21:28:00,31.6,31.0,28.38,SSW,193,0.0,1.0,96,0.00,,,0.02,weatherlink.com 1.10,2013-03-18 01:28:00,
2013-03-17 21:43:00,31.6,31.0,28.38,SSW,193,0.0,1.0,96,0.00,,,0.02,weatherlink.com 1.10,2013-03-18 01:43:00,
2013-03-17 21:58:00,31.6,31.0,28.38,SSW,193,0.0,1.0,96,0.01,,,0.03,weatherlink.com 1.10,2013-03-18 01:58:00,
2013-03-17 22:13:00,31.5,31.0,28.39,SSW,193,0.0,1.0,96,0.01,,,0.03,weatherlink.com 1.10,2013-03-18 02:13:00,
2013-03-17 22:28:00,31.4,30.0,28.39,SSW,193,0.0,0.0,96,0.01,,,0.03,weatherlink.com 1.10,2013-03-18 02:28:00,
2013-03-17 22:43:00,31.4,30.0,28.39,SSW,193,0.0,0.0,96,0.01,,,0.03,weatherlink.com 1.10,2013-03-18 02:43:00,
2013-03-17 22:58:00,31.3,30.0,28.40,SSW,193,0.0,1.0,96,0.00,,,0.03,weatherlink.com 1.10,2013-03-18 02:58:00,
2013-03-17 23:13:00,31.3,30.0,28.39,SSW,198,0.0,1.0,96,0.00,,,0.03,weatherlink.com 1.10,2013-03-18 03:13:00,
2013-03-17 23:28:00,31.3,30.0,28.39,South,186,0.0,1.0,95,0.00,,,0.03,weatherlink.com 1.10,2013-03-18 03:28:00,
2013-03-17 23:43:00,31.2,30.0,28.39,South,186,0.0,0.0,95,0.00,,,0.03,weatherlink.com 1.10,2013-03-18 03:43:00,
2013-03-17 23:58:00,31.2,30.0,28.39,South,186,0.0,0.0,95,0.00,,,0.03,weatherlink.com 1.10,2013-03-18 03:58:00,